Location: Fond Mahaut
(18.0707°N, 63.0465°W)
Time: 04:57:56
(UTC+00:00)

CZ-4C R/B - Pass Details

Date: 08 December 2019
Orbit: 646 x 1356 km, 63.4° (Epoch: 24 January)

Event Time Altitude Azimuth Distance (km) Brightness Sun altitude
Rises 23:08:03 0° 201° (SSW) 2,942 5.6 -21.2°
Reaches altitude 10° 23:10:17 10° 199° (SSW) 2,040 4.7 -21.7°
Maximum altitude 23:14:48 74° 114° (ESE) 700 1.6 -22.7°
Enters shadow 23:15:23 65° 61° (ENE) 746 1.6 -22.8°
